DW2465 Weather Reports


Display with metric or nautical units.
time (UTC)temp
F
wind
direction
speed
MPH
gust
MPH
rain 1hr
in
rain 24hr
in
rain mn
in
humidity
%
barometer
mb
20260906164539 72 130 0.0 0.0 0.00 0.00 0.00 85 1016.6
20260906163037 72 360 0.0 0.0 0.00 0.00 0.00 85 1016.6
20260906161538 72 123 0.0 0.0 0.00 0.00 0.00 85 1016.7
20260906160037 72 136 0.0 0.0 0.00 0.00 0.00 86 1016.7
20260906154535 72 103 0.0 0.0 0.00 0.00 0.00 85 1016.8
20260906153044 72 104 0.0 0.0 0.00 0.00 0.00 84 1016.8
20260906151545 73 242 0.0 0.0 0.00 0.00 0.00 85 1016.8
20260906150035 73 119 0.0 0.0 0.00 0.00 0.00 85 1016.8
20260906144531 73 140 0.0 0.0 0.00 0.00 0.00 86 1016.7
20260906143037 72 98 0.0 0.0 0.00 0.00 0.00 87 1016.6
20260906141527 72 167 0.0 0.0 0.00 0.00 0.00 87 1016.4
20260906140032 71 122 0.0 0.0 0.00 0.00 0.00 88 1016.5
20260906134525 71 110 0.0 0.0 0.00 0.00 0.00 89 1016.6
20260906133026 70 173 0.0 0.0 0.00 0.00 0.00 89 1016.3
20260906131521 70 129 0.0 0.0 0.00 0.00 0.00 91 1016.2
20260906130020 70 113 0.0 0.0 0.00 0.00 0.00 91 1016.1
20260906124520 69 107 0.0 0.0 0.00 0.00 0.00 92 1016.3
20260906123029 69 92 0.0 0.0 0.00 0.00 0.00 92 1016.2
20260906121514 69 129 0.0 0.0 0.00 0.00 0.00 92 1016.1
20260906120012 69 105 0.0 0.0 0.00 0.00 0.00 92 1016.0
20260906114512 69 128 0.0 0.0 0.00 0.00 0.00 92 1016.0
20260906113007 69 121 0.0 0.0 0.00 0.00 0.00 91 1015.8
20260906111506 69 94 0.0 0.0 0.00 0.00 0.00 91 1015.8
20260906110004 70 117 0.0 0.0 0.00 0.00 0.00 90 1015.8
20260906104503 70 90 0.0 0.0 0.00 0.00 0.00 90 1015.6
20260906103032 70 115 0.0 0.0 0.00 0.00 0.00 90 1015.6
20260906101532 70 82 0.0 0.0 0.00 0.00 0.00 89 1015.5
20260906100031 70 117 0.0 0.0 0.00 0.00 0.00 89 1015.5
20260906094526 71 121 0.0 0.0 0.00 0.00 0.00 88 1015.5
20260906093035 71 132 0.0 0.0 0.00 0.00 0.00 87 1015.2
20260906091522 71 119 0.0 0.0 0.00 0.00 0.00 87 1015.1
20260906090036 71 115 0.0 0.0 0.00 0.00 0.00 87 1015.1
20260906084520 71 112 0.0 0.0 0.00 0.00 0.00 87 1014.9
20260906083018 72 94 0.0 0.0 0.00 0.00 0.00 86 1014.8
20260906081518 72 110 0.0 0.0 0.00 0.00 0.00 85 1014.8
20260906080046 72 110 0.0 0.0 0.00 0.00 0.00 85 1014.7
20260906074543 73 108 0.0 0.0 0.00 0.00 0.00 84 1014.7
20260906073012 73 94 0.0 0.0 0.00 0.00 0.00 84 1014.8
20260906071510 73 111 0.0 0.0 0.00 0.00 0.00 84 1015.1
20260906070007 73 121 0.0 0.0 0.00 0.00 0.00 84 1015.1
20260906064506 73 116 0.0 0.0 0.00 0.00 0.00 86 1015.1
20260906063006 73 119 0.0 0.0 0.00 0.00 0.00 86 1015.4
20260906061505 73 113 0.0 0.0 0.00 0.00 0.00 86 1015.4
20260906060001 73 130 0.0 0.0 0.00 0.00 0.00 86 1015.2
20260906054601 73 130 0.0 0.0 0.00 0.00 0.00 85 1015.2
20260906053059 73 111 0.0 0.0 0.00 0.00 0.00 85 1015.2
20260906051604 73 120 0.0 0.0 0.00 0.00 0.00 86 1015.2
20260906050105 73 139 0.0 0.0 0.00 0.00 0.00 86 1015.4
20260906044554 73 116 0.0 0.0 0.00 0.00 0.00 85 1015.6
20260906043058 73 110 0.0 0.0 0.00 0.00 0.00 85 1015.6
20260906041557 74 92 0.0 0.0 0.00 0.00 0.00 85 1015.7
20260906040051 74 88 0.0 0.0 0.00 0.00 0.00 84 1015.5
20260906034607 74 101 0.0 0.0 0.00 0.00 0.00 84 1015.7
20260906033048 74 130 0.0 0.0 0.00 0.00 0.00 84 1015.7
20260906031551 75 121 0.0 0.0 0.00 0.00 0.00 83 1015.7
20260906030019 75 126 0.0 0.0 0.00 0.00 0.00 83 1015.6
20260906024519 75 146 0.0 0.0 0.00 0.00 0.00 82 1015.5
20260906023047 76 148 0.0 0.0 0.00 0.00 0.00 81 1015.7
20260906021546 76 153 0.0 0.0 0.00 0.00 0.00 81 1015.5
20260906020019 76 174 0.0 0.0 0.00 0.00 0.00 80 1015.1
20260906014525 76 156 0.0 0.0 0.00 0.00 0.00 78 1014.5
20260906013014 77 141 0.0 0.0 0.00 0.00 0.00 77 1014.0
20260906011512 77 148 0.0 0.0 0.00 0.00 0.00 76 1013.5
20260906010011 78 138 0.0 0.0 0.00 0.00 0.00 74 1013.4
20260906004511 79 175 0.0 0.0 0.00 0.00 0.00 72 1013.2
20260906003008 80 166 0.0 0.0 0.00 0.00 0.00 69 1013.2
20260906001508 81 180 0.0 0.0 0.00 0.00 0.00 68 1013.1
20260906000007 82 188 0.0 0.0 0.00 0.00 0.00 66 1012.9
20260905234507 83 94 0.0 0.0 0.00 0.00 0.00 63 1012.9
20260905233007 84 92 0.0 0.0 0.00 0.00 0.00 61 1012.9
20260905231536 84 65 0.0 0.0 0.00 0.00 0.00 61 1012.9
20260905230040 84 89 0.0 0.0 0.00 0.00 0.00 63 1012.7
20260905224533 84 78 0.0 0.0 0.00 0.00 0.00 62 1012.5
20260905223035 84 71 0.0 0.0 0.00 0.00 0.00 63 1012.4
20260905221531 84 113 0.0 0.0 0.00 0.00 0.00 63 1012.1
20260905220032 84 88 0.0 0.0 0.00 0.00 0.00 62 1012.3
20260905214528 84 41 0.0 0.0 0.00 0.00 0.00 63 1012.6
20260905213023 83 119 0.0 0.0 0.00 0.00 0.00 63 1012.8
20260905211521 83 96 0.0 0.0 0.00 0.00 0.00 64 1012.9
20260905210028 82 122 0.0 0.0 0.00 0.00 0.00 68 1013.2
20260905204515 82 74 0.0 0.0 0.00 0.00 0.00 68 1013.3
20260905203012 81 128 0.0 0.0 0.00 0.00 0.00 72 1013.4
20260905201508 80 78 0.0 0.0 0.00 0.00 0.00 75 1013.7
20260905200005 78 43 0.0 0.0 0.00 0.00 0.00 78 1014.0
20260905194533 77 58 0.0 0.0 0.00 0.00 0.00 78 1014.3
20260905193034 77 59 0.0 0.0 0.00 0.00 0.00 80 1014.5
20260905191535 77 59 0.0 0.0 0.00 0.00 0.00 80 1014.5
20260905190027 77 56 0.0 0.0 0.00 0.00 0.00 79 1014.9
20260905184524 76 45 0.0 0.0 0.00 0.00 0.00 82 1015.1
20260905183019 75 344 0.0 0.0 0.00 0.00 0.00 84 1015.1
20260905181519 73 88 0.0 0.0 0.00 0.00 0.00 88 1015.4
20260905180008 72 105 0.0 0.0 0.00 0.00 0.00 90 1015.5
20260905174517 70 128 0.0 0.0 0.00 0.00 0.00 92 1015.5
20260905173002 70 128 0.0 0.0 0.00 0.00 0.00 93 1015.9
20260905171537 69 132 0.0 0.0 0.00 0.00 0.00 94 1015.9
20260905170029 69 110 0.0 0.0 0.00 0.00 0.00 95 1015.9